Hourly Data Report for October 19, 2015

All times are specified in Local Standard Time (LST). Add 1 hour to adjust for Daylight Saving Time where and when it is observed.

FREDERICTON
NEW BRUNSWICK

45°52'08.000" N
66°32'14.000" W
20.70 m
8101505
71700
YFC

Download Data

Hourly Data (October 2015)
Hourly Data Report for October 19, 2015
Temp Definition
°C
Dew Point Temp Definition
°C
Rel Hum Definition
%
Wind Dir Definition
10's deg

Wind Spd Definition
km/h
Visibility Definition
km
Stn Press Definition
kPa
Hmdx Definition


Wind Chill Definition


Weather Definition


TIME
00:00 Legend Double Dagger -1.4 -4.8 78 28 11 16.1 101.78   -5 LegendNANA
01:00 Legend Double Dagger -1.7 -5.1 78 28 8 16.1 101.85   -5 LegendNANA
02:00 Legend Double Dagger -1.8 -5.3 77 28 5 16.1 101.90   -4 LegendNANA
03:00 Legend Double Dagger -2.5 -5.5 80 28 9 16.1 101.94   -6 LegendNANA
04:00 Legend Double Dagger -2.7 -5.7 80 28 9 16.1 102.00   -6 LegendNANA
05:00 Legend Double Dagger -3.2 -5.9 82 29 11 16.1 102.06   -7 LegendNANA
06:00 Legend Double Dagger -3.7 -6.2 83 26 8 16.1 102.12   -7 LegendNANA
07:00 Legend Double Dagger -4.3 -6.2 87 22 5 16.1 102.18   -6 LegendNANA
08:00 Legend Double Dagger -2.7 -5.3 83 LegendMM 4 16.1 102.22   -4 LegendNANA
09:00 Legend Double Dagger -0.3 -5.8 67 30 15 16.1 102.25   -5 LegendNANA
10:00 Legend Double Dagger 0.8 -6.4 59 32 18 16.1 102.26     LegendNANA
11:00 Legend Double Dagger 2.1 -6.7 52 31 13 16.1 102.24     LegendNANA
12:00 Legend Double Dagger 2.8 -6.8 49 35 13 16.1 102.18     LegendNANA
13:00 Legend Double Dagger 3.9 -7.9 42 31 18 16.1 102.12     LegendNANA
14:00 Legend Double Dagger 4.7 -8.3 38 27 17 16.1 102.04     LegendNANA
15:00 Legend Double Dagger 4.8 -9.7 34 28 18 16.1 101.97     LegendNANA
16:00 Legend Double Dagger 4.8 -9.2 36 24 11 16.1 101.92     LegendNANA
17:00 Legend Double Dagger 3.8 -8.8 40 24 11 16.1 101.85     LegendNANA
18:00 Legend Double Dagger -0.2 -4.3 74 21 5 16.1 101.85   -2 LegendNANA
19:00 Legend Double Dagger -0.7 -5.5 70 20 8 16.1 101.83   -4 LegendNANA
20:00 Legend Double Dagger 0.3 -5.5 65 19 9 16.1 101.83     LegendNANA
21:00 Legend Double Dagger 1.3 -5.8 59 20 13 16.1 101.80     LegendNANA
22:00 Legend Double Dagger 1.8 -5.6 58 20 18 16.1 101.73     LegendNANA
23:00 Legend Double Dagger 2.0 -5.4 58 20 15 16.1 101.70     Rain

Notes on Data Quality.

Legend

  • E = Estimated
  • M = Missing
  • NA = Not Available
  • ‡ = Partner data that is not subject to review by the National Climate Archives
Date modified: